User: anonymous
Location: Melbourne
(37.8170°S, 144.9670°E)
Time: 06:59:27
(UTC+10:00)
Language:

Aureole 2 Rocket - Orbit

View from above orbital plane
View from above orbital plane
View from above satellite
View from above satellite

Ground track
Ground track

The orbit data is extracted from the following two-line orbital elements,

1 07004U 73107B   14108.23501051  .00028229  00000-0  79565-3 0  5938
2 07004 073.9521 349.7635 0310238 150.1030 346.7116 14.99953897 61373
Epoch (UTC): 18 April 2014 05:38:24
Eccentricity: 0.0310238
inclination: 73.9521°
perigee height: 351 km
apogee height: 782 km
right ascension of ascending node: 349.7635°
argument of perigee: 150.1030°
revolutions per day: 14.99953897
mean anomaly at epoch: 346.7116°
orbit number at epoch: 6137

The dashed part of the orbit path shows where the satellite is in the earth's shadow,  

DLR